Location: Marcé
(47.5801°N, 0.3280°W)
Time: 20:30:52
(UTC+01:00)

Vanguard 3 - Pass Details

Date: 14 December 2021
Orbit: 508 x 3260 km, 33.3° (Epoch: 17 January)

Event Time Altitude Azimuth Distance (km) Brightness Sun altitude
Rises 01:32:33 0° 224° (SW) 5,600 - -64.6°
Reaches altitude 10° 01:36:06 10° 216° (SW) 4,933 - -64.3°
Maximum altitude 01:49:51 40° 154° (SSE) 3,919 - -63.4°
Exits shadow 01:59:14 27° 111° (ESE) 4,869 10.9 -62.5°
Drops below altitude 10° 02:07:11 10° 95° (E) 6,180 11.7 -61.8°
Sets 02:12:17 0° 89° (E) 7,102 12.2 -61.3°
